Other Surface Observations
Issued by NWS

Home | Current Version | Previous Version | Text Only | Print | Product List | Glossary On
Versions: 1 2 3 4 5 6 7 8 9 10 11 12 13 14 15 16 17 18 19 20 21 22 23 24 25 26 27 28 29 30 31 32 33 34 35 36 37 38 39 40 41 42 43 44 45 46 47 48 49 50
000
SXUS52 KTAE 250118
OSOTAE
OSOTAE
North Florida/South Alabama/Southwest Georgia Weather Roundup
National Weather Service Tallahassee Florida
900 PM EDT THU JUL 24 2014

Note: "fair" indicates few or no clouds below 12,000 feet with no
significant weather and/or obstructions to visibility.

!FLZ017-115-028-034-025-250200
...North Florida...

CITY           SKY/WX    TMP DP  RH WIND       PRES   REMARKS
TALLAHASSEE    PTCLDY    82  76  81 NW5       29.99R
APALACHICOLA   CLEAR     84  74  71 SW7       29.98R HX  91
PERRY          CLEAR     79  73  83 SW3       30.00R
CROSS CITY       N/A     82  74  76 S3        30.00R
HOMERVILLE     FAIR      81  75  83 CALM      29.99R
JACKSONVILLE   MOCLDY    84  74  71 SW7       29.96R HX  91
$$

!FLZ112-006-005-002-011-250200
...Florida Panhandle...

CITY           SKY/WX    TMP DP  RH WIND       PRES   REMARKS
MARIANNA       CLEAR     80  79  96 SW3       29.97R
BONIFAY        FAIR      77  75  93 CALM      29.98R
PANAMA CITY NW FAIR      82  73  74 SW5       29.97R
TYNDALL AFB    CLEAR     82  76  80 SW7       29.99R
TYND DRONE APT FAIR      82  76  81 SW7       29.97R
DE FUNIAK SPR  FAIR      79  73  81 S3        29.98R
EGLIN AFB      PTCLDY    82  73  74 SW6       29.97R
DESTIN         PTCLDY    84  75  74 SW3       29.97R HX  92
HURLBURT       CLEAR     83  70  66 SW5       29.96R
CRESTVIEW      PTCLDY    82  73  74 S6        29.98R
PENSACOLA      CLEAR     80  70  71 SW6       29.97R
$$

!ALZ063-066-250200
...South Alabama...

CITY           SKY/WX    TMP DP  RH WIND       PRES   REMARKS
DOTHAN         CLOUDY    79  74  84 SW5       30.00R
OZARK CAIRNS   PTCLDY    78  74  88 SW5       29.97R
FT RUCKER HELI PTCLDY    79  73  82 S3        29.95R
RUCKER HELI 3  FAIR      81  71  72 SW7       29.99R
RUCKER HELI 2  FAIR      77  73  87 SW3       29.96R
FLORALA APT    PTCLDY    81  74  79 CALM      29.99R
ANDALUSIA      PTCLDY    84  74  71 SW3       29.97R HX  91
TROY           PTCLDY    81  73  76 S5        29.97R
EUFALA         FAIR      81  72  74 SW3       29.94S
MOBILE         PTCLDY    80  74  81 S6        29.98R
$$

!GAZ120>161-250200
...Southwest and South Central Georgia...

CITY           SKY/WX    TMP DP  RH WIND       PRES   REMARKS
THOMASVILLE    MOCLDY    81  75  83 SW3       30.00R
BAINBRIDGE     PTCLDY    82  77  83 S3        29.98R HX  91
MOODY AFB      MOCLDY    81  79  95 SW8       29.99R HX  90
VALDOSTA       PTCLDY    82  72  71 CALM      29.99R
MOULTRIE       MOCLDY    81  73  78 SW5       30.00R
BLAKELY        MOCLDY    82  75  78 SW3       29.97R
ALBANY         MOCLDY    83  72  69 SW3       29.98R
TIFTON         FAIR      82  74  77 S5        29.98R
FITZGERALD     FAIR      83  73  70 S6        30.00R
CORDELE        FAIR      84  72  65 SW6       29.96S HX  90
AMERICUS       FAIR      82  72  69 SW7       29.97S
$$

!GMZ750-755-770-775-250200
...Coastal and Buoy Obs...

STATION/POSITION TIME  TEMP    WIND        PRES    VSBY  WAVE
                       AIR SEA DIR/SP/G                  HT/PER
                 (UTC) (F)     (DEG/KT/KT) (MB)    (MI)  (FT/S)
KEATON BEACH     0100   84     230/ 11/ 12 1015.9R
CEDAR KEY        0100   85     240/  6/  9 1016.5R
C TOWER          0100   83     220/  9/ 10 1015.8R
APALACHICOLA BUO 0100   85 86  240/  8/  8 1015.9R         1/ 7
PANAMA CITY BUOY 0043   83 85  210/  6/  8 1015.5S         2/ 9
MOBILE BUOY      0017   84 87  220/ 10/ 12 1015.0R
ORANGE BCH AL BU 0100   83 84  190/  8/ 10 1014.7R         1/ 4
$$



USA.gov is the U.S. government's official web portal to all federal, state and local government web resources and services.